MHRO

Juan Manuel Gálvez International Airport

Airport
ICAO code
MHRO
IATA Code
RTB
Summary
ICAO Region
CARSAM
ICAO Territory
Location

Roatan, Bay Islands Department

Serving
Roatan
Elevation
39 ft
Coordinates
16° 19' 5" N , 86° 31' 37" W
KCC
Airport WX
Tropical Revolving Storm
Metar
MHRO 250400Z 09020KT 4000 FU SCT020 29/26 Q1010 A2983 NOSIG

International airport serving the island of Roatan, Honduras.

Climatology

Tropical Savanna climate (Köppen climate classification Aw)

Runways

Designator Length Width Surface Rops
7/25 2240 45 ASP Yes/Yes

Airport map

Aerial View

SKYbrary Partners:

Safety knowledge contributed by: